When you browse on this site, cookies collect data to enhance your experience and personalize the content and advertising you see.
Visit our Privacy Policy to learn more. By continuing to use the site, you agree to this use of cookies and data.
  • En España
  • Lista de países
  • Para 7 días
  • Temperatura del agua
  • Mapa Satelital
  • El tiempo en el mapa
  • Informadores
  • user-avatar
    Iniciar sesión

    Tiempo cada hora Cam Ranh

    Hoy, 19 Diciembre, Miércoles

    Tiempo Temperatura Precipitaciones Viento Presión Humedad
    00:00 +24°C° 0.1 mm 6 mps 756 mmHg 88%
    01:00 +24°C° 0 mm 6 mps 756 mmHg 88%
    02:00 +24°C° 0.1 mm 6 mps 756 mmHg 89%
    03:00 +24°C° 0.1 mm 6 mps 756 mmHg 89%
    04:00 +24°C° 0.1 mm 6 mps 755 mmHg 90%
    05:00 +24°C° 0.1 mm 6 mps 756 mmHg 89%
    06:00 +24°C° 0.1 mm 6 mps 756 mmHg 88%
    07:00 +26°C° 0 mm 5 mps 756 mmHg 86%
    08:00 +28°C° 0.1 mm 5 mps 756 mmHg 80%
    09:00 +29°C° 0.1 mm 6 mps 756 mmHg 74%
    10:00 +32°C° 0.1 mm 6 mps 756 mmHg 68%
    11:00 +32°C° 0.1 mm 6 mps 756 mmHg 68%
    12:00 +32°C° 0.1 mm 6 mps 755 mmHg 67%
    13:00 +32°C° 0 mm 7 mps 755 mmHg 68%
    14:00 +32°C° 0 mm 6 mps 755 mmHg 71%
    15:00 +30°C° 0 mm 6 mps 754 mmHg 73%
    16:00 +30°C° 0 mm 6 mps 754 mmHg 76%
    17:00 +28°C° 0 mm 6 mps 755 mmHg 81%
    18:00 +27°C° 0 mm 5 mps 755 mmHg 86%
    19:00 +26°C° 0 mm 5 mps 755 mmHg 91%
    20:00 +26°C° 0.1 mm 5 mps 756 mmHg 91%
    21:00 +26°C° 0.1 mm 4 mps 756 mmHg 92%
    22:00 +26°C° 0.1 mm 4 mps 756 mmHg 93%
    23:00 +25°C° 0.1 mm 4 mps 756 mmHg 92%

    Mañana, 20 Diciembre, Jueves

    Tiempo Temperatura Precipitaciones Viento Presión Humedad
    00:00 +25°C° 0.1 mm 4 mps 756 mmHg 92%
    01:00 +25°C° 0.1 mm 4 mps 756 mmHg 92%
    02:00 +25°C° 0.1 mm 3 mps 756 mmHg 92%
    03:00 +25°C° 0.1 mm 3 mps 755 mmHg 92%
    04:00 +25°C° 0.1 mm 3 mps 755 mmHg 92%
    05:00 +25°C° 0 mm 3 mps 755 mmHg 90%
    06:00 +25°C° 0 mm 3 mps 755 mmHg 88%
    07:00 +26°C° 0 mm 3 mps 755 mmHg 87%
    08:00 +28°C° 0 mm 4 mps 755 mmHg 80%
    09:00 +30°C° 0 mm 4 mps 756 mmHg 72%
    10:00 +33°C° 0 mm 4 mps 756 mmHg 65%
    11:00 +33°C° 0 mm 4 mps 755 mmHg 65%
    12:00 +33°C° 0 mm 5 mps 754 mmHg 65%
    13:00 +33°C° 0 mm 5 mps 754 mmHg 65%
    14:00 +33°C° 0 mm 5 mps 753 mmHg 70%
    15:00 +32°C° 0 mm 5 mps 753 mmHg 75%
    16:00 +30°C° 0 mm 5 mps 752 mmHg 79%
    17:00 +29°C° 0 mm 5 mps 753 mmHg 84%
    18:00 +27°C° 0 mm 4 mps 753 mmHg 90%
    19:00 +26°C° 0 mm 4 mps 754 mmHg 95%
    20:00 +26°C° 0 mm 4 mps 754 mmHg 95%
    21:00 +26°C° 0 mm 4 mps 754 mmHg 95%
    22:00 +25°C° 0 mm 4 mps 754 mmHg 96%
    23:00 +25°C° 0 mm 3 mps 754 mmHg 96%

    Pasado mañana, 21 Diciembre, Viernes

    Tiempo Temperatura Precipitaciones Viento Presión Humedad
    00:00 +25°C° 0 mm 3 mps 754 mmHg 96%
    01:00 +25°C° 0 mm 3 mps 754 mmHg 96%
    02:00 +25°C° 0 mm 3 mps 754 mmHg 95%
    03:00 +24°C° 0 mm 3 mps 753 mmHg 94%
    04:00 +24°C° 0 mm 3 mps 753 mmHg 94%
    05:00 +24°C° 0 mm 3 mps 753 mmHg 92%
    06:00 +25°C° 0 mm 3 mps 754 mmHg 90%
    07:00 +25°C° 0 mm 3 mps 754 mmHg 88%
    08:00 +27°C° 0 mm 3 mps 754 mmHg 80%
    09:00 +29°C° 0 mm 4 mps 755 mmHg 72%
    10:00 +32°C° 0 mm 4 mps 755 mmHg 64%
    11:00 +33°C° 0 mm 4 mps 754 mmHg 63%
    12:00 +33°C° 0 mm 4 mps 753 mmHg 62%
    13:00 +34°C° 0 mm 4 mps 752 mmHg 61%
    14:00 +33°C° 0 mm 4 mps 752 mmHg 66%
    15:00 +32°C° 0 mm 5 mps 752 mmHg 72%
    16:00 +30°C° 0 mm 5 mps 751 mmHg 78%
    17:00 +29°C° 0 mm 5 mps 752 mmHg 83%
    18:00 +28°C° 0 mm 5 mps 753 mmHg 89%
    19:00 +27°C° 0 mm 5 mps 753 mmHg 94%
    20:00 +27°C° 0.1 mm 5 mps 754 mmHg 94%
    21:00 +27°C° 0.1 mm 5 mps 754 mmHg 94%
    22:00 +27°C° 0.1 mm 5 mps 754 mmHg 94%
    23:00 +26°C° 0 mm 5 mps 754 mmHg 94%

    22 Diciembre, Sábado

    Tiempo Temperatura Precipitaciones Viento Presión Humedad
    00:00 +26°C° 0 mm 5 mps 753 mmHg 95%
    01:00 +25°C° 0 mm 5 mps 753 mmHg 95%
    02:00 +25°C° 0 mm 5 mps 753 mmHg 95%
    03:00 +23°C° 0 mm 5 mps 752 mmHg 94%
    04:00 +23°C° 0 mm 5 mps 752 mmHg 94%
    05:00 +23°C° 0 mm 5 mps 753 mmHg 92%
    06:00 +23°C° 0 mm 5 mps 753 mmHg 90%
    07:00 +23°C° 0 mm 5 mps 753 mmHg 87%
    08:00 +27°C° 0 mm 5 mps 753 mmHg 77%
    09:00 +29°C° 0 mm 5 mps 754 mmHg 67%
    10:00 +32°C° 0 mm 5 mps 754 mmHg 56%
    11:00 +33°C° 0 mm 6 mps 753 mmHg 55%
    12:00 +33°C° 0 mm 6 mps 752 mmHg 54%
    13:00 +34°C° 0 mm 7 mps 751 mmHg 53%
    14:00 +33°C° 0 mm 7 mps 751 mmHg 61%
    15:00 +32°C° 0 mm 7 mps 751 mmHg 68%
    16:00 +30°C° 0 mm 7 mps 750 mmHg 75%
    17:00 +29°C° 0 mm 7 mps 751 mmHg 77%
    18:00 +28°C° 0 mm 7 mps 752 mmHg 80%
    19:00 +27°C° 0 mm 8 mps 752 mmHg 83%
    20:00 +27°C° 0.6 mm 7 mps 753 mmHg 83%
    21:00 +27°C° 0.6 mm 7 mps 753 mmHg 83%
    22:00 +27°C° 0.6 mm 6 mps 753 mmHg 83%
    23:00 +27°C° 0.9 mm 6 mps 753 mmHg 86%

    23 Diciembre, Domingo

    Tiempo Temperatura Precipitaciones Viento Presión Humedad
    00:00 +26°C° 0.9 mm 6 mps 752 mmHg 89%
    01:00 +26°C° 0.9 mm 6 mps 752 mmHg 92%
    02:00 +26°C° 0.9 mm 6 mps 752 mmHg 93%
    03:00 +26°C° 0.9 mm 6 mps 752 mmHg 93%
    04:00 +26°C° 0.9 mm 6 mps 752 mmHg 94%
    05:00 +26°C° 0.4 mm 6 mps 752 mmHg 93%
    06:00 +26°C° 0.4 mm 6 mps 753 mmHg 93%
    07:00 +26°C° 0.4 mm 5 mps 753 mmHg 93%
    08:00 +27°C° 0.5 mm 5 mps 753 mmHg 87%
    09:00 +28°C° 0.5 mm 5 mps 754 mmHg 81%
    10:00 +30°C° 0.5 mm 5 mps 754 mmHg 75%
    11:00 +30°C° 0.6 mm 5 mps 753 mmHg 74%
    12:00 +30°C° 0.6 mm 5 mps 752 mmHg 73%
    13:00 +30°C° 0.6 mm 5 mps 752 mmHg 72%
    14:00 +30°C° 0.2 mm 5 mps 751 mmHg 73%
    15:00 +30°C° 0.2 mm 5 mps 751 mmHg 74%
    16:00 +30°C° 0.2 mm 5 mps 751 mmHg 76%
    17:00 +28°C° 0.2 mm 5 mps 751 mmHg 80%
    18:00 +27°C° 0.2 mm 5 mps 752 mmHg 85%
    19:00 +26°C° 0.2 mm 5 mps 752 mmHg 90%
    20:00 +26°C° 0.1 mm 5 mps 753 mmHg 89%
    21:00 +26°C° 0.1 mm 5 mps 753 mmHg 88%
    22:00 +26°C° 0.1 mm 5 mps 753 mmHg 88%
    23:00 +26°C° 0 mm 5 mps 753 mmHg 87%

    24 Diciembre, Lunes

    Tiempo Temperatura Precipitaciones Viento Presión Humedad
    00:00 +26°C° 0 mm 5 mps 752 mmHg 87%
    01:00 +26°C° 0 mm 5 mps 752 mmHg 86%
    02:00 +26°C° 0 mm 5 mps 752 mmHg 86%
    03:00 +26°C° 0 mm 5 mps 752 mmHg 86%
    04:00 +26°C° 0 mm 5 mps 751 mmHg 86%
    05:00 +26°C° 0 mm 4 mps 752 mmHg 85%
    06:00 +26°C° 0 mm 4 mps 752 mmHg 84%
    07:00 +26°C° 0 mm 4 mps 753 mmHg 83%
    08:00 +28°C° 0 mm 5 mps 753 mmHg 77%
    09:00 +30°C° 0 mm 5 mps 753 mmHg 70%
    10:00 +32°C° 0 mm 5 mps 753 mmHg 63%
    11:00 +33°C° 0 mm 5 mps 752 mmHg 64%
    12:00 +33°C° 0 mm 5 mps 752 mmHg 64%
    13:00 +33°C° 0 mm 6 mps 751 mmHg 65%
    14:00 +33°C° 0.1 mm 6 mps 751 mmHg 69%
    15:00 +32°C° 0.1 mm 6 mps 750 mmHg 73%
    16:00 +30°C° 0.1 mm 6 mps 750 mmHg 77%
    17:00 +29°C° 0.1 mm 6 mps 751 mmHg 82%
    18:00 +28°C° 0.1 mm 6 mps 751 mmHg 86%
    19:00 +27°C° 0.1 mm 5 mps 752 mmHg 91%
    20:00 +27°C° 0.2 mm 5 mps 752 mmHg 92%
    21:00 +26°C° 0.2 mm 5 mps 752 mmHg 92%
    22:00 +26°C° 0.2 mm 5 mps 753 mmHg 93%
    23:00 +26°C° 0.2 mm 4 mps 752 mmHg 93%
    Mostrar más